Weather History for KSYF - April, 2014

Change the Weather History Date:

Thursday, April 10, 2014

  Actual Average Record
Temperature  
Mean Temperature 54 °F -  
Max Temperature 66 °F 63 °F 66 °F (2014)
Min Temperature 42 °F 33 °F 16 °F (2013)
Degree Days  
Heating Degree Days 12    
Growing Degree Days 4 (Base 50)    
Moisture  
Dew Point 30 °F    
Average Humidity 40    
Maximum Humidity 64    
Minimum Humidity 23    
Precipitation  
Precipitation 0.00 in - - ()
Sea Level Pressure  
Sea Level Pressure 29.96 in    
Wind  
Wind Speed 10 mph (ENE)    
Max Wind Speed 23 mph    
Max Gust Speed 29 mph    
Visibility 10 miles    
Events      
Averages and records for this station are not official NWS values.
T = Trace of Precipitation, MM = Missing Value Source: NWS Daily Summary

Daily Weather History Graph

Daily Weather History Graph

Search for Another Location

Airport or City:

Trip Planner

Search our weather history database for the weather conditions in past years. The results will help you decide how hot, cold, wet, or windy it might be!

Date:

Astronomy

Apr. 10, 2014 Rise Set
Actual Time 7:17 AM CDT 8:20 PM CDT
Civil Twilight 6:49 AM CDT 8:48 PM CDT
Nautical Twilight 6:16 AM CDT 9:21 PM CDT
Astronomical Twilight 5:42 AM CDT 9:55 PM CDT
Moon 4:06 PM CDT (4/10) 4:40 AM CDT (4/10)
Length of Visible Light 13h 58m
Length of Day
13h 03m
Waxing Gibbous, 80% of the Moon is Illuminated
Apr 10
Waxing Gibbous
Apr 15
Full
Apr 22
Last Quarter
Apr 29
New
May 6
First Quarter

Hourly Weather History & Observations

Time (CDT) Temp. Windchill Dew Point Humidity Pressure Visibility Wind Dir Wind Speed Gust Speed Precip Events Conditions
12:15 AM 54.0 °F - 24.3 °F 32% 29.77 in 10.0 mi SW 11.5 mph - N/A   Clear
12:35 AM 53.6 °F - 24.8 °F 33% 29.77 in 10.0 mi SW 9.2 mph - N/A   Clear
12:55 AM 53.8 °F - 24.4 °F 32% 29.78 in 10.0 mi WSW 4.6 mph - N/A   Clear
1:15 AM 52.7 °F - 25.7 °F 35% 29.78 in 10.0 mi WSW 4.6 mph - N/A   Clear
1:35 AM 50.7 °F - 27.3 °F 40% 29.79 in 10.0 mi West 10.4 mph - N/A   Scattered Clouds
1:55 AM 50.4 °F - 27.1 °F 41% 29.79 in 10.0 mi WSW 6.9 mph - N/A   Clear
2:15 AM 50.9 °F - 26.4 °F 39% 29.79 in 10.0 mi SW 6.9 mph - N/A   Clear
2:35 AM 54.3 °F - 23.4 °F 30% 29.84 in 10.0 mi North 6.9 mph 16.1 mph N/A   Clear
2:55 AM 57.2 °F - 28.2 °F 33% 29.83 in 10.0 mi NNE 15.0 mph 19.6 mph N/A   Clear
3:15 AM 55.6 °F - 32.0 °F 41% 29.85 in 10.0 mi North 18.4 mph - N/A   Clear
3:35 AM 54.9 °F - 32.4 °F 42% 29.86 in 10.0 mi NNE 23.0 mph 27.6 mph N/A   Clear
3:55 AM 54.0 °F - 32.5 °F 44% 29.87 in 10.0 mi NNE 19.6 mph 25.3 mph N/A   Clear
4:15 AM 53.2 °F - 32.2 °F 45% 29.90 in 10.0 mi NNE 18.4 mph 26.5 mph N/A   Clear
4:35 AM 52.3 °F - 31.1 °F 44% 29.90 in 10.0 mi NNE 19.6 mph 28.8 mph N/A   Clear
4:55 AM 51.3 °F - 31.8 °F 47% 29.91 in 10.0 mi NNE 18.4 mph 23.0 mph N/A   Clear
5:15 AM 50.2 °F - 32.0 °F 50% 29.91 in 10.0 mi NNE 12.7 mph - N/A   Clear
5:35 AM 48.9 °F - 32.0 °F 52% 29.93 in 10.0 mi North 9.2 mph - N/A   Clear
5:55 AM 47.3 °F - 32.0 °F 55% 29.92 in 10.0 mi North 11.5 mph - N/A   Clear
6:15 AM 45.7 °F 41.5 °F 31.6 °F 58% 29.94 in 10.0 mi North 8.1 mph - N/A   Clear
6:35 AM 46.0 °F 40.2 °F 31.8 °F 58% 29.95 in 10.0 mi North 12.7 mph - N/A   Clear
6:55 AM 45.5 °F 40.8 °F 31.6 °F 58% 29.96 in 10.0 mi North 9.2 mph - N/A   Clear
7:15 AM 44.2 °F 39.7 °F 31.3 °F 60% 29.97 in 10.0 mi North 8.1 mph - N/A   Clear
7:35 AM 42.8 °F 37.5 °F 31.5 °F 64% 29.98 in 10.0 mi North 9.2 mph - N/A   Clear
7:55 AM 44.2 °F 39.7 °F 32.0 °F 62% 30.00 in 10.0 mi North 8.1 mph - N/A   Clear
8:15 AM 46.0 °F 41.0 °F 32.9 °F 60% 30.01 in 10.0 mi North 10.4 mph - N/A   Clear
8:35 AM 47.5 °F - 31.8 °F 55% 30.02 in 10.0 mi North 12.7 mph 16.1 mph N/A   Clear
8:55 AM 47.3 °F - 31.3 °F 54% 30.02 in 10.0 mi NNE 8.1 mph - N/A   Clear
9:15 AM 46.9 °F - 31.6 °F 55% 30.03 in 10.0 mi North 6.9 mph - N/A   Clear
9:35 AM 46.8 °F - 31.8 °F 56% 30.05 in 10.0 mi NNW 8.1 mph - N/A   Clear
9:55 AM 48.0 °F - 32.0 °F 54% 30.06 in 10.0 mi North 6.9 mph - N/A   Clear
10:15 AM 51.6 °F - 31.5 °F 46% 30.07 in 10.0 mi North 12.7 mph - N/A   Clear
10:35 AM 53.1 °F - 31.1 °F 43% 30.07 in 10.0 mi NNE 10.4 mph - N/A   Clear
10:55 AM 55.4 °F - 29.7 °F 37% 30.07 in 10.0 mi NE 11.5 mph 19.6 mph N/A   Clear
11:15 AM 56.1 °F - 28.0 °F 34% 30.06 in 10.0 mi NE 12.7 mph 17.3 mph N/A   Clear
11:35 AM 57.2 °F - 27.7 °F 32% 30.06 in 10.0 mi NNE 10.4 mph - N/A   Clear
11:55 AM 57.2 °F - 28.4 °F 33% 30.06 in 10.0 mi North 6.9 mph 16.1 mph N/A   Clear
12:15 PM 58.5 °F - 27.5 °F 31% 30.05 in 10.0 mi ENE 6.9 mph - N/A   Clear
12:35 PM 59.0 °F - 27.0 °F 29% 30.04 in 10.0 mi NNE 6.9 mph - N/A   Clear
12:55 PM 59.7 °F - 27.5 °F 29% 30.04 in 10.0 mi North 6.9 mph - N/A   Clear
1:15 PM 61.3 °F - 27.0 °F 27% 30.03 in 10.0 mi ENE 9.2 mph - N/A   Clear
1:35 PM 60.4 °F - 26.4 °F 27% 30.02 in 10.0 mi South 4.6 mph - N/A   Clear
2:15 PM 62.4 °F - 26.4 °F 26% 30.01 in 10.0 mi Calm Calm - N/A   Clear
2:35 PM 62.6 °F - 26.8 °F 26% 30.01 in 10.0 mi East 3.5 mph - N/A   Clear
2:55 PM 63.7 °F - 27.1 °F 25% 30.00 in 10.0 mi East 5.8 mph - N/A   Clear
3:15 PM 63.0 °F - 27.0 °F 26% 30.00 in 10.0 mi ENE 4.6 mph - N/A   Clear
3:35 PM 64.8 °F - 27.5 °F 25% 29.99 in 10.0 mi South 5.8 mph - N/A   Clear
3:55 PM 63.1 °F - 27.1 °F 26% 29.98 in 10.0 mi Calm Calm - N/A   Clear
4:15 PM 65.3 °F - 27.9 °F 24% 29.98 in 10.0 mi South 4.6 mph - N/A   Clear
4:35 PM 64.9 °F - 27.0 °F 24% 29.96 in 10.0 mi ESE 3.5 mph - N/A   Clear
4:55 PM 65.7 °F - 27.5 °F 24% 29.96 in 10.0 mi SW 6.9 mph 19.6 mph N/A   Clear
5:15 PM 65.7 °F - 27.1 °F 23% 29.96 in 10.0 mi SSE 3.5 mph 23.0 mph N/A   Clear
5:35 PM 64.0 °F - 27.0 °F 25% 29.96 in 10.0 mi Calm Calm - N/A   Clear
5:55 PM 64.4 °F - 27.5 °F 25% 29.96 in 10.0 mi SE 5.8 mph - N/A   Clear
6:15 PM 64.4 °F - 28.0 °F 25% 29.96 in 10.0 mi SSE 6.9 mph - N/A   Clear
6:35 PM 64.8 °F - 27.9 °F 25% 29.96 in 10.0 mi SE 8.1 mph - N/A   Clear
6:55 PM 63.5 °F - 28.2 °F 26% 29.96 in 10.0 mi SSE 6.9 mph - N/A   Clear
7:15 PM 62.2 °F - 30.0 °F 30% 29.95 in 10.0 mi SSE 8.1 mph - N/A   Clear
7:35 PM 61.2 °F - 30.9 °F 32% 29.96 in 10.0 mi SSE 6.9 mph - N/A   Clear
7:55 PM 58.8 °F - 32.0 °F 36% 29.95 in 10.0 mi SSE 8.1 mph - N/A   Clear
8:15 PM 55.8 °F - 33.6 °F 43% 29.95 in 10.0 mi SSE 10.4 mph - N/A   Clear
8:35 PM 55.6 °F - 33.1 °F 43% 29.95 in 10.0 mi SSE 10.4 mph - N/A   Clear
8:55 PM 53.4 °F - 33.8 °F 47% 29.96 in 10.0 mi SSE 10.4 mph - N/A   Clear
9:15 PM 53.4 °F - 33.1 °F 46% 29.96 in 10.0 mi SSE 10.4 mph - N/A   Clear
9:35 PM 52.9 °F - 32.9 °F 47% 29.97 in 10.0 mi SE 11.5 mph - N/A   Clear
9:55 PM 52.7 °F - 32.5 °F 46% 29.97 in 10.0 mi SSE 11.5 mph - N/A   Clear
10:15 PM 50.7 °F - 32.9 °F 51% 29.98 in 10.0 mi SSE 10.4 mph - N/A   Clear
10:35 PM 50.9 °F - 33.1 °F 51% 29.98 in 10.0 mi SSE 11.5 mph - N/A   Clear
10:55 PM 51.6 °F - 32.9 °F 49% 29.98 in 10.0 mi South 13.8 mph - N/A   Clear
11:15 PM 51.8 °F - 32.9 °F 49% 29.99 in 10.0 mi South 13.8 mph - N/A   Scattered Clouds
11:35 PM 52.3 °F - 32.9 °F 48% 30.00 in 10.0 mi South 5.8 mph - N/A   Scattered Clouds
11:55 PM 52.0 °F - 32.2 °F 47% 30.00 in 10.0 mi South 6.9 mph 24.2 mph N/A   Scattered Clouds